Campeche, Mexico

4:48 AM CST on January 16, 2018 (GMT -0600)
Alberto Acuna Ongay

Weather History for MMCP - October, 2012

Change the Weather History Date:

Wednesday, October 24, 2012

  Actual Average Record
Temperature  
Mean Temperature 80 °F -  
Max Temperature 90 °F 84 °F 94 °F (2015)
Min Temperature 71 °F 69 °F 64 °F (2011)
Cooling Degree Days 16    
Growing Degree Days 30 (Base 50)    
Moisture  
Dew Point 74 °F    
Average Humidity 82    
Maximum Humidity 100    
Minimum Humidity 54    
Precipitation  
Precipitation 0.00 in - - ()
Sea Level Pressure  
Sea Level Pressure 29.86 in    
Wind  
Wind Speed 6 mph ()    
Max Wind Speed 12 mph    
Max Gust Speed 23 mph    
Visibility 5.9 miles    
Events Fog , Rain    
Averages and records for this station are not official NWS values.
T = Trace of Precipitation, MM = Missing Value Source: Averaged Metar Reports

Daily Weather History Graph

Daily Weather History Graph

Search for Another Location

Airport or City:

Trip Planner

Search our weather history database for the weather conditions in past years. The results will help you decide how hot, cold, wet, or windy it might be!

Date:

Astronomy

Oct. 24, 2012 Rise Set
Actual Time 7:00 AM CDT 6:31 PM CDT
Civil Twilight 6:37 AM CDT 6:54 PM CDT
Nautical Twilight 6:11 AM CDT 7:20 PM CDT
Astronomical Twilight 5:45 AM CDT 7:45 PM CDT
Moon 3:15 PM CDT (10/24) 2:32 AM CDT (10/24)
Length of Visible Light 12h 16m
Length of Day
11h 31m
Waxing Gibbous, 76% of the Moon is Illuminated
Oct 24
Waxing Gibbous
Oct 29
Full
Nov 6
Last Quarter
Nov 13
New
Nov 20
First Quarter

Hourly Weather History & Observations

Time (CDT) Temp. Heat Index Dew Point Humidity Pressure Visibility Wind Dir Wind Speed Gust Speed Precip Events Conditions
12:50 AM 75 °F - 72 °F 87% 29.89 in 4 mi ENE 2.2 mph - -  
5:41 AM 73.4 °F - 73.4 °F 100% 29.85 in 7.0 mi NNE 6.9 mph - N/A   Clear
6:45 AM 73.4 °F - 73.4 °F 100% 29.87 in 4.0 mi NNE 6.9 mph - N/A Fog Fog
6:50 AM 73 °F - 72 °F 95% 29.87 in 6 mi NNE 4.5 mph - -  
7:43 AM 73.4 °F - 73.4 °F 100% 29.89 in 5.0 mi Calm Calm - N/A   Clear
8:49 AM 77.0 °F - 75.2 °F 94% 29.91 in 5.0 mi NNE 6.9 mph - N/A   Partly Cloudy
9:45 AM 78.8 °F - 75.2 °F 89% 29.92 in 5.0 mi NNE 11.5 mph 23.0 mph N/A   Partly Cloudy
9:50 AM 82 °F - 75 °F 75% 29.92 in 6 mi NNE 4.5 mph - -   Scattered Clouds
10:42 AM 80.6 °F 86.2 °F 75.2 °F 84% 29.92 in 5.0 mi NNE 11.5 mph - N/A   Scattered Clouds
11:46 AM 84.2 °F 92.3 °F 75.2 °F 74% 29.90 in 5.0 mi NNE 11.5 mph - N/A   Scattered Clouds
12:48 PM 89 °F - 74 °F 54% 29.86 in 6 mi NE 2.2 mph - -   Partly Cloudy
12:48 PM 86.0 °F 93.4 °F 73.4 °F 66% 29.87 in 6.0 mi NE 6.9 mph - N/A   Scattered Clouds
1:43 PM 86.0 °F 95.1 °F 75.2 °F 70% 29.83 in 6.0 mi WNW 11.5 mph - N/A   Scattered Clouds
2:18 PM 82.4 °F 88.2 °F 73.4 °F 74% 29.82 in 5.0 mi West 9.2 mph - N/A Rain Rain
2:45 PM 84.2 °F 94.1 °F 77.0 °F 79% 29.81 in 7.0 mi WNW 9.2 mph - N/A   Scattered Clouds
3:42 PM 82.4 °F 89.5 °F 75.2 °F 79% 29.80 in 7.0 mi WNW 9.2 mph - N/A   Scattered Clouds
3:45 PM 87 °F - 77 °F 64% 29.81 in 6 mi NNW 2.2 mph - -  
4:41 PM 82.4 °F 90.9 °F 77.0 °F 84% 29.79 in 7.0 mi WNW 9.2 mph - N/A   Scattered Clouds
5:41 PM 82.4 °F 89.5 °F 75.2 °F 79% 29.79 in 7.0 mi North 11.5 mph - N/A   Scattered Clouds
6:41 PM 82.4 °F 89.5 °F 75.2 °F 79% 29.81 in 7.0 mi North 9.2 mph - N/A   Scattered Clouds
6:50 PM 83 °F - 73 °F 64% 29.81 in 4 mi NNW 6.7 mph - -   Mostly Cloudy
7:42 PM 80.6 °F 85.4 °F 73.4 °F 79% 29.82 in 7.0 mi NNE 9.2 mph - N/A   Scattered Clouds
8:45 PM 77.0 °F - 73.4 °F 89% 29.85 in 7.0 mi NNE 5.8 mph - N/A   Scattered Clouds
9:46 PM 78.8 °F - 73.4 °F 83% 29.87 in 7.0 mi North 9.2 mph - N/A   Scattered Clouds
9:50 PM 78 °F - 72 °F 77% 29.88 in 4 mi NNE 2.2 mph - -   Scattered Clouds
10:45 PM 73.4 °F - 71.6 °F 94% 29.87 in 7.0 mi North 9.2 mph - N/A   Partly Cloudy
11:43 PM 75.2 °F - 71.6 °F 89% 29.87 in 7.0 mi North 6.9 mph - N/A   Partly Cloudy